Regional Weather Roundup
Issued by NWS

Home | Current Version | Previous Version | Graphics & Text | Print | Product List | Glossary On
Versions: 1 2 3 4 5 6 7 8 9 10 11 12 13 14 15 16 17 18 19 20 21 22 23 24 25 26 27 28 29 30 31 32 33 34 35 36 37 38 39 40 41 42 43 44 45 46 47 48 49 50
716
ASUS45 KTFX 121110
RWRMT
MONTANA REGIONAL WEATHER ROUNDUP
NATIONAL WEATHER SERVICE GREAT FALLS MT
400 AM MST FRI FEB 12 2016

NOTE: "FAIR" INDICATES FEW OR NO CLOUDS BELOW 12000 FEET WITH NO
SIGNIFICANT WEATHER AND/OR OBSTRUCTIONS TO VISIBILITY.

MTZ001>007-043-121200-
WEST OF THE DIVIDE

CITY           SKY/WX    TMP DP  RH WIND       PRES   REMARKS
KALISPELL      LGT RAIN  34  32  92 CALM      30.24S
MISSOULA       LGT RAIN  37  36  96 CALM      30.26S
BUTTE          CLOUDY    34  31  88 CALM      30.25F
MULLAN PASS    FOG       34  34 100 S7        30.19F VSB 1/4 WCI  28
ANACONDA         N/A     37  34  87 CALM      30.24S
DEER LODGE       N/A     36  36 100 W3        30.26F
HAMILTON         N/A     37  37 100 CALM      30.24F
PLAINS           N/A     39  35  85 CALM      30.22F
$$

MTZ008-052>055-121200-
SOUTHWEST MONTANA

CITY           SKY/WX    TMP DP  RH WIND       PRES   REMARKS
BOZEMAN        CLOUDY    35  30  82 S7        30.24F WCI  29
DILLON         CLOUDY    36  31  82 SW8       30.25R WCI  30
ENNIS          MOCLDY    37  34  87 S15       30.30F WCI  28
TWIN BRIDGES     N/A     36  30  79 SE3       30.21S
$$

MTZ009-010-012-014-046-048-049-054-121200-
EAST SLOPES AND CENTRAL MONTANA

CITY           SKY/WX    TMP DP  RH WIND       PRES   REMARKS
CUT BANK       CLOUDY    31  28  89 E7        30.23F WCI  24
GREAT FALLS    CLOUDY    34  29  82 E6        30.24S WCI  29
MALMSTROM AFB  CLOUDY    32  29  90 N3        30.26S
HELENA         CLOUDY    36  32  85 CALM      30.24F
CHOTEAU          N/A     34  30  86 E7        30.24F WCI  28
CONRAD           N/A     29  28  96 MISG      30.23F
$$

MTZ011-013-016-021-045-047-050-051-121200-
NORTH CENTRAL MONTANA

CITY           SKY/WX    TMP DP  RH WIND       PRES   REMARKS
HAVRE          CLOUDY    26  25  96 E6        30.30R FOG     WCI  19
LEWISTOWN      CLOUDY    32  27  81 SE6       30.25F WCI  26
N BAR RANCH    FOG       28  27  93 CALM      30.27F VSB 1/4
CHINOOK          N/A     34  32  93 CALM      30.32S
$$

MTZ017>020-022>027-061-062-121200-
NORTHEAST MONTANA

CITY           SKY/WX    TMP DP  RH WIND       PRES   REMARKS
GLASGOW        CLOUDY    22  19  89 E16       30.39R FOG     WCI   8
JORDAN           N/A     31  27  85 NE8       30.32S WCI  23
SIDNEY         CLOUDY    18  12  79 NE10      30.44R WCI   6
WOLF POINT     CLOUDY    21  11  65 E14       30.44R WCI   8
PLENTYWOOD       N/A      7   0  72 NE12      30.46R WCI  -9
POPLAR           N/A     14   9  79 NE13      30.46R WCI   0
SCOBEY           N/A     11   1  64 N9        30.39  WCI  -2
$$

MTZ028>42-056>058-121200-
SOUTHCENTRAL AND SOUTHEAST MONTANA

CITY           SKY/WX    TMP DP  RH WIND       PRES   REMARKS
BAKER          CLOUDY    25  20  81 N7        30.34R WCI  17
BILLINGS       CLOUDY    32  29  88 NE6       30.27F WCI  26
LIVINGSTON     CLOUDY    39  26  59 E6        30.24F
MILES CITY     CLOUDY    31  27  85 CALM      30.34R
EKALAKA          N/A     25  21  84 N3        30.24
FORSYTH          N/A     34  30  86 CALM      30.34S
LAUREL           N/A     33  23  67 CALM      30.23S
ROUNDUP          N/A     29  24  81 CALM      30.17S
$$

REGIONAL REPORTS...DAKOTAS

CITY           SKY/WX    TMP DP  RH WIND       PRES   REMARKS
WILLISTON      CLOUDY    11   5  77 NE17      30.46R WCI  -6
MINOT          PTCLDY     2  -7  66 NW12      30.47R WCI -15
DICKINSON      CLOUDY    17  12  80 N10       30.35R WCI   5
BEACH          CLOUDY    18  18 100 N7        30.39S WCI   8
CROSBY           N/A     -2  -6  84 NW6       30.52R WCI -14
TIOGA            N/A      1   0  92 NE6       30.49R WCI -10
WATFORD CITY   CLOUDY    14   9  79 N10       30.44R WCI   1
BISMARCK       CLOUDY    17   9  70 N6        30.44R WCI   9
GRAND FORKS    CLEAR      1  -8  66 N16       30.46R WCI -19
FARGO          CLEAR      4  -5  66 N15       30.43R WCI -14
BUFFALO SD       N/A     27  22  81 N8        30.25R WCI  19
RAPID CITY     CLOUDY    30  27  88 N9        30.31R WCI  22
$$

REGIONAL REPORTS...WYOMING/IDAHO/WASHINGTON

CITY           SKY/WX    TMP DP  RH WIND       PRES   REMARKS
GILLETTE       CLEAR     25  23  92 W5        30.28R
SHERIDAN       CLOUDY    32  25  75 CALM      30.28S
BUFFALO WY     CLOUDY    37  26  64 NW3       30.27S
CODY           PTCLDY    30  18  59 S3        30.24F
YELLOWSTONE LA   N/A     30  27  88 CALM      30.36S
IDAHO FALLS    CLOUDY    15  14  95 N3        30.35F FOG
SALMON         CLOUDY    25  21  86 CALM      30.34R
BOISE          PTCLDY    32  28  85 CALM      30.33S
SPOKANE        CLOUDY    39  37  92 NE8       30.19F
$$

REGIONAL REPORTS...ALBERTA

CITY           SKY/WX    TMP DP  RH WIND       PRES   REMARKS
EDMONTON       CLOUDY    16  10  79 SE10      30.33F WCI   3
CALGARY        FOG       28  28 100 SE12      30.20F VSB 1/4 WCI  18
LETHBRIDGE     SNOW      28  28 100 E10       30.24F VSB 1/2 WCI  19
MEDICINE HAT   CLOUDY    25  23  93 E14       30.33R WCI  13
WATERTON GATE    N/A     30  27  86 NE2         N/A
CARDSTON         N/A     30  28  93 E1          N/A
MILK RIVER       N/A     25  25 100 E2          N/A
ONEFOUR          N/A     32  30  93 E8          N/A  WCI  25
$$

REGIONAL REPORTS...SASKATCHEWAN

CITY           SKY/WX    TMP DP  RH WIND       PRES   REMARKS
SWIFT CURRENT  FLURRIES   9   7  92 E15       30.38F WCI  -8
REGINA         CLEAR     -2  -6  84 NW5       30.53R
SASKATOON      PTCLDY    -4  -9  77 NE5       30.59R
CYPRESS HILLS    N/A     25  23  93 CALM        N/A
VAL MARIE        N/A     16  14  93 NE9         N/A  WCI   4
ROCKGLEN         N/A      7   5  92 NE3         N/A
ASSINIBOIA       N/A     14   9  79 SE10        N/A  WCI   1
$$




USA.gov is the U.S. government's official web portal to all federal, state and local government web resources and services.